Regional Weather Roundup
Issued by NWS Upton, NY

Home | Current Version | Previous Version | Text Only | Print | Product List | Glossary On
Versions: 1 2 3 4 5 6 7 8 9 10 11 12 13 14 15 16 17 18 19 20 21 22 23 24 25 26 27 28 29 30 31 32 33 34 35 36 37 38 39 40 41 42 43 44 45 46 47 48 49 50
000
ASUS41 KOKX 271705
RWROKX

REGIONAL WEATHER ROUNDUP
NATIONAL WEATHER SERVICE NEW YORK NY
1200 PM EST FRI FEB 27 2015

NOTE: "FAIR" INDICATES FEW OR NO CLOUDS BELOW 12,000 FEET WITH NO
SIGNIFICANT WEATHER AND/OR OBSTRUCTIONS TO VISIBILITY.

NYZ071-072-176-178-NJZ106-104-271800-
NEW YORK CITY METRO AREA


CITY           SKY/WX    TMP DP  RH WIND       PRES   REMARKS
CENTRAL PARK   NOT AVBL
LAGUARDIA APRT MOSUNNY   24   7  48 N5        30.39F WCI  18
KENNEDY INTL   MOSUNNY   26   7  44 NW9       30.41S WCI  17
NEWARK/LIBERTY MOSUNNY   26   8  46 N8        30.40F WCI  18
BRNX BOT. GARD   N/A    N/A N/A N/A NW9       30.39F
TETERBORO      SUNNY     25   5  42 N8        30.39F WCI  16
$$

NYZ177-179-078>081-271800-
LONG ISLAND NEW YORK

CITY           SKY/WX    TMP DP  RH WIND       PRES   REMARKS
FARMINGDALE    SUNNY     24   6  46 N7        30.39S WCI  16
ISLIP          MOSUNNY   24   6  46 NW10      30.37S WCI  14
SHIRLEY        SUNNY     24   7  48 NW10      30.39S WCI  14
WESTHAMPTON    SUNNY     24   8  50 N9        30.39S WCI  14
MONTAUK POINT  NOT AVBL
$$

NYZ052-065-067-271800-
HUDSON VALLEY

CITY           SKY/WX    TMP DP  RH WIND       PRES   REMARKS
WHITE PLAINS   SUNNY     22   2  42 NW10      30.35F WCI  11
NEWBURGH       SUNNY     18   3  53 VRB5      30.38F WCI  11
MONTGOMERY     SUNNY     21   0  39 CALM      30.36F
POUGHKEEPSIE   SUNNY     22  -2  35 NE7       30.40F WCI  13
ALBANY         MOSUNNY   18  -2  41 W10       30.42S WCI   6
$$

NJZ001-105-106-008-010-013-015-019>022-104-271800-
NEW JERSEY

CITY           SKY/WX    TMP DP  RH WIND       PRES   REMARKS
NEWARK/LIBERTY MOSUNNY   26   8  46 N8        30.40F WCI  18
TETERBORO      SUNNY     25   5  42 N8        30.39F WCI  16
CALDWELL       SUNNY     24   3  40 NW7       30.40F WCI  16
MORRISTOWN     NOT AVBL
SOMERVILLE     SUNNY     26   1  34 N6        30.39F WCI  19
SUSSEX         SUNNY     22   0  38 VRB5      30.37F WCI  16
ANDOVER          N/A     22   1  40 N7        30.37F WCI  13
TRENTON        SUNNY     26   6  42 VRB7      30.40S WCI  18
MILLVILLE      MOSUNNY   30  18  60 N12       30.40S WCI  20
ATLANTIC CITY  MOSUNNY   31  17  56 NW14      30.39F WCI  21
WRIGHTSTOWN    MOSUNNY   27  11  51 NW9       30.38F WCI  18
TOMS RIVER     PTSUNNY   28  10  47 N10       30.39F WCI  19
BELMAR         SUNNY     28   9  43 NW8       30.38F WCI  20
$$

PAZ047>061-062-071-271800-
EASTERN PENNSYLVANIA

CITY           SKY/WX    TMP DP  RH WIND       PRES   REMARKS
PHILADELPHIA   PTSUNNY   27  10  49 N7        30.44R WCI  19
ALLENTOWN      SUNNY     25   0  33 CALM      30.41S
SCRANTON       MOSUNNY   18   3  52 N7        30.38R WCI   9
$$

CTZ002-004>006-009-010-012-RIZ004-006-007-MAZ004-011-015-271800-
SOUTHERN NEW ENGLAND
 IN CT

CITY           SKY/WX    TMP DP  RH WIND       PRES   REMARKS
BRADLEY INTL   PTSUNNY   23   3  42 VRB5      30.36S WCI  17
HARTFORD       SUNNY     23   3  42 NW6       30.38F WCI  16
DANBURY        SUNNY     21  -5  31 N9        30.37S WCI  11
WTRBRY/OXFORD  NOT AVBL
BRIDGEPORT     SUNNY     24   0  35 NW10      30.39R WCI  14
MERIDEN        SUNNY     24   1  36 N9        30.38R WCI  14
NEW HAVEN      SUNNY     24   2  38 VRB6      30.37F WCI  17
CHESTER        FAIR      23   5  46 NW8       30.35R WCI  14
GROTON         SUNNY     25   7  46 MISG      30.36R
WILLIMANTIC    MIX PCPN  23   4  44 NW12      30.35S WCI  12

 IN RI

CITY           SKY/WX    TMP DP  RH WIND       PRES   REMARKS
PROVIDENCE     PTSUNNY   25   4  40 VRB3      30.34S
BLOCK ISLAND   SUNNY     27   7  43 W6        30.34S WCI  20
WESTERLY       SUNNY     26   5  40 VRB5      30.36R WCI  20

 IN MA

CITY           SKY/WX    TMP DP  RH WIND       PRES   REMARKS
BOSTON         MOSUNNY   22  -5  30 W12       30.35S WCI  10
WORCESTER      SUNNY     19  -3  38 NW13      30.27R WCI   6
WESTFIELD      SUNNY     23  -1  35 W7        30.35S WCI  15
PROVINCETOWN   SUNNY     23   7  50 NW15      30.34R WCI  10
NANTUCKET      PTSUNNY   26  12  55 N9        30.33R WCI  17
$$

ANZ330-335-338-340-345-350-353-355-271800-
COASTAL MARINE OBSERVATIONS


STATION/POSITION TIME  SKY/WX   TEMP    WIND        PRES    VSBY  WAVE
                                AIR SEA DIR/SP/G                  HT/PER
                 (UTC)          (F)     (DEG/KT/KT) (MB)    (MI)  (FT/S)
NY HARB ENTRANCE 1700            23 38  320/  8/ 12 1029.4          4/11
4S FIRE IS       NOT AVBL
20S FIRE ISLAND  1600               36              1029.4          5/11
23SW MTP         1700                                 N/A           5/10
HUDSON CANYON    NOT AVBL
EXECUTION ROCKS  NOT AVBL
WESTERN LI SOUND NOT AVBL
CENTRAL LI SOUND NOT AVBL
EASTERN LI SOUND NOT AVBL
ROBBINS REEF     1700            22     350/ 10/ 13 1028.3
$$


>>>>>>>>>>>>>>>>>>>>>>>>>>>> KEY <<<<<<<<<<<<<<<<<<<<<<<<<<<
>                                                          <
>     SKY/WX - SKY CONDITION/PRESENT WEATHER               <
>     TMP    - TEMPERATURE IN FAHRENHEIT                   <
>     DP     - DEWPOINT IN FAHRENHEIT                      <
>     RH     - RELATIVE HUMIDITY IN PERCENT                <
>     WIND   - DIRECTION AND SPEED IN MPH                  <
>     PRES   - MEAN SEA LEVEL PRESSURE IN INCHES OF HG     <
>     WCI    - WIND CHILL INDEX                            <
>     VSB    - VISIBILITY IN MILES                         <
>     HX     - HEAT INDEX                                  <
>     TC     - TEMPERATURE IN CELSIUS                      <
>     VRB    - VARIABLE WIND DIRECTION                     <
>                                                          <
>>>>>>>>>>>>>>>>>>>>>>>>>>>> KEY <<<<<<<<<<<<<<<<<<<<<<<<<<<




USA.gov is the U.S. government's official web portal to all federal, state and local government web resources and services.